Regional Weather Roundup
Issued by NWS San Angelo, TX

Home | Current Version | Previous Version | Text Only | Print | Product List | Glossary On
Versions: 1 2 3 4 5 6 7 8 9 10 11 12 13 14 15 16 17 18 19 20 21 22 23 24 25 26 27 28 29 30 31 32 33 34 35 36 37 38 39 40 41 42 43 44 45 46 47 48 49 50
000
ASUS44 KSJT 291110
RWRSJT
WEST CENTRAL TEXAS REGIONAL WEATHER ROUNDUP
NATIONAL WEATHER SERVICE SAN ANGELO TX
600 AM CDT SAT APR 29 2017

NOTE: "FAIR" INDICATES FEW OR NO CLOUDS BELOW 12,000 FEET WITH NO
SIGNIFICANT WEATHER AND/OR OBSTRUCTIONS TO VISIBILITY.

TXZ049-054-064>066-071>073-076>078-098-099-113-114-127-128-139-140-
154-155-168>170-291200
...LOCATIONS ACROSS WEST CENTRAL TEXAS...

CITY           SKY/WX    TMP DP  RH WIND       PRES   REMARKS
SAN ANGELO     CLOUDY    75  65  70 SW9       29.55R
ABILENE        CLOUDY    72  68  87 S14G22    29.56R
DYESS AFB      CLOUDY    74  68  81 S12       29.55R
JUNCTION       MOCLDY    73  66  78 S12       29.57R
SWEETWATER     CLOUDY    73  68  86 SE7       29.59S
BROWNWOOD      CLOUDY    73  66  78 S17       29.55S
COLEMAN        CLOUDY    73  65  77 S14G21    29.55S
SONORA         CLOUDY    73  68  83 S13       29.59S
OZONA            N/A     73  63  68 W7        29.61R
BRADY          NOT AVBL
$$

TEXAS PANHANDLE/OKLAHOMA PANHANDLE

CITY           SKY/WX    TMP DP  RH WIND       PRES   REMARKS
AMARILLO       CLOUDY    40  40 100 N25G31    29.78R WCI  29
BORGER         CLOUDY    40  39  97 N21G30    29.81R WCI  30
CANADIAN       TSTM      42  41  95 NW10G25   29.84R WCI  36
DALHART        NOT AVBL
DUMAS          CLOUDY    33  32  98 N23G30    29.83R WCI  20
GUYMON         NOT AVBL
HEREFORD       CLOUDY    43  42  95 NE30      29.79R WCI  33
PAMPA          DRIZZLE   40  39  96 N28G36    29.75F WCI  29
PERRYTON       CLOUDY    40  38  95 N23G33    29.82R WCI  29
$$

SOUTHERN PANHANDLE/SOUTH PLAINS/ROLLING PLAINS

CITY           SKY/WX    TMP DP  RH WIND       PRES   REMARKS
LUBBOCK        CLOUDY    46  43  89 N25G33    29.67R WCI  37
SNYDER         CLOUDY   N/A N/A N/A N20       29.59R
CHILDRESS      TSTM      50  45  83 N22G43    29.64F
SEMINOLE       CLOUDY    49  41  74 N18G30    29.70R
$$

PERMIAN BASIN

CITY           SKY/WX    TMP DP  RH WIND       PRES   REMARKS
MIDLAND        PTCLDY    55  46  71 NW20G26   29.63R
ODESSA         CLEAR     54  47  77 N17G28    29.64R
WINK           CLOUDY    54  44  69 N21G26    29.67R
$$

FAR WEST/SOUTHWEST MOUNTAINS/TRANS PECOS

CITY           SKY/WX    TMP DP  RH WIND       PRES   REMARKS
ALPINE         SUNNY     53  35  50 CALM      29.77R
DRYDEN           N/A     69  46  43 N9        29.57R
EL PASO        CLOUDY    46  41  82 N22G29    29.80R WCI  38
FORT STOCKTON  CLEAR     57  40  52 NW14      29.70R
GUADALUPE PASS CLOUDY    49  41  74 SW18G29   29.76R
MARFA          CLEAR     56  38  50 W8        29.74R
PECOS          SUNNY     55  40  56 NW14      29.70R
$$

DALLAS/FORT WORTH METROPLEX

CITY           SKY/WX    TMP DP  RH WIND       PRES   REMARKS
DFW AIRPORT    CLOUDY    78  72  81 S21G26    29.53F
FTW MEACHAM    CLOUDY    77  72  84 S25G31    29.52F
DAL-EXECUTIVE  CLOUDY    76  72  87 SE14G29   29.54F FOG
GRAND PRAIRIE  CLOUDY    76  69  79 SE12G26   29.56F
ADDISON        MOCLDY    75  70  83 SE25G44   29.55F
MESQUITE       PTSUNNY   75  71  89 SE17G24   29.57F
LANCASTER      CLOUDY    74  71  88 SE14G22   29.58F FOG
$$

NORTH CENTRAL TEXAS

CITY           SKY/WX    TMP DP  RH WIND       PRES   REMARKS
SHRMAN/DENISON CLOUDY    75  70  83 S23G36    29.55S
GAINESVILLE    CLOUDY    75  68  80 S20G25    29.56S
BRIDGEPORT     CLOUDY    76  68  75 S20G28    29.54S
DENTON         CLOUDY    76  70  82 S26G38    29.53F
WAXAHACHIE     CLOUDY    74  72  91 SE16G23   29.58F FOG
GRANBURY       CLOUDY    77  70  78 SE17G31   29.54S
$$

WESTERN NORTH TEXAS

CITY           SKY/WX    TMP DP  RH WIND       PRES   REMARKS
WICHITA FALLS  CLOUDY    71  64  78 NW20G26   29.52R
VERNON         CLOUDY    50  46  87 NW30G43   29.71R THUNDER
BRECKENRIDGE   MOSUNNY   75  66  75 S18G25    29.50F HAZE
COMANCHE       CLOUDY    73  67  81 S14G23    29.56S
$$

CENTRAL AND SOUTH CENTRAL TEXAS

CITY           SKY/WX    TMP DP  RH WIND       PRES   REMARKS
AUSTIN/BERGSTM MOCLDY    79  72  79 SE14G24   29.59F
WACO           LGT RAIN  76  72  87 SE15      29.58F FOG
HILLSBORO      CLOUDY    76  72  88 SE18G24   29.58F FOG
TEMPLE         CLOUDY    76  73  91 SE16      29.60F
KILLEEN-GRAY   MOCLDY    75  70  84 SE22      29.57F
FORT HOOD      CLOUDY    74  71  89 S17G23    29.56F
GEORGETOWN     MOCLDY    77  68  73 SE9G18    29.60F
LAGO VISTA     CLOUDY    75  71  86 SE12G18   29.61F FOG
SAN MARCOS     MOCLDY    75  72  88 S16       29.60F
NEW BRAUNFELS  CLOUDY    77  71  82 S14       29.58F HAZE
RANDOLPH AFB   MOCLDY    75  75 100 SE14G22   29.58S
SAN ANTONIO    CLOUDY    76  70  82 SE13      29.58F
STINSON        LGT RAIN  78  70  76 SE12G23   29.55F
PLEASANTON     NOT AVBL
LA GRANGE      CLOUDY    79  75  89 S10G17    29.61S FOG
GIDDINGS       CLOUDY    77  72  84 S8        29.63S HAZE
$$

EAST TEXAS

CITY           SKY/WX    TMP DP  RH WIND       PRES   REMARKS
PARIS          PTCLDY    75  70  83 S21G26    29.59F
CLARKSVILLE    NOT AVBL
TYLER          CLOUDY    78  74  87 S17       29.63F
LONGVIEW       LGT RAIN  76  75  97 SE20      29.66F
PALESTINE      CLOUDY    78  73  84 SE12G22   29.67R
NACOGDOCHES    CLOUDY    75  72  88 S17G23    29.68S
$$

TEXAS HILL COUNTRY AND EDWARDS PLATEAU

CITY           SKY/WX    TMP DP  RH WIND       PRES   REMARKS
LLANO          CLOUDY    75  68  78 SE10      29.61S
HORSESHOE BAY  PTSUNNY   75  68  78 SE13G24   29.57F
KERRVILLE      CLOUDY    72  68  87 SE16G22   29.60S
FREDERICKSBRG  CLOUDY    72  65  80 S8G17     29.60S
ROCKSPRINGS    PTSUNNY   70  66  88 S15G22    29.62R FOG
HONDO          CLOUDY    76  70  82 SE13      29.57R HAZE
UVALDE         CLOUDY    74  69  86 CALM      29.58R HAZE
DEL RIO        MOCLDY    74  70  87 E12       29.51R
$$

SOUTHEAST TEXAS

CITY           SKY/WX    TMP DP  RH WIND       PRES   REMARKS
COLLEGE STN    CLOUDY    79  73  82 S17G25    29.64R
CALDWELL       NOT AVBL
CROCKETT       PTSUNNY   77  73  88 S9G18     29.70R
BRENHAM        CLOUDY    80  74  83 SE13      29.65R
HUNTSVILLE     CLOUDY    80  71  74 SE9G18    29.66R
CONROE         CLOUDY    78  73  84 SE17      29.68R
HOUSTON BUSH   CLOUDY    79  73  82 SE17G30   29.68S
HOUSTON HOBBY  MOCLDY    79  74  84 SE17G25   29.68R
PERLAND        CLOUDY    81  74  79 SE16G26   29.70R
WHARTON        CLOUDY    78  72  82 SE15G24   29.65S
$$

THE UPPER TEXAS COAST

CITY           SKY/WX    TMP DP  RH WIND       PRES   REMARKS
ORANGE         CLOUDY    78  75  91 SE13G23   29.77R
PORT ARTHUR    CLOUDY    79  73  82 SE25G36   29.72S
GALVESTON      CLOUDY    79  76  90 SE22G31   29.69R FOG
ANGLETON       CLOUDY    80  76  87 SE18G29   29.67R
BAY CITY       CLOUDY    79  75  89 SE15G24   29.65S FOG
$$

TEXAS COASTAL BEND, RIO GRANDE PLAINS DEEP SOUTH TEXAS

CITY           SKY/WX    TMP DP  RH WIND       PRES   REMARKS
VICTORIA       CLOUDY    79  74  84 SE22      29.61S
BEEVILLE       CLOUDY    78  78 100 SE15G22   29.56S
ROCKPORT       CLOUDY    79  75  87 SE18G25   29.58S FOG
PORT ARANSAS   CLOUDY    77  75  92 SE23G31   29.57S FOG
PORT LAVACA    CLOUDY    78  76  93 SE21G28   29.61S
CORPUS CHRISTI CLOUDY    79  75  87 SE25G36   29.56S
KINGSVILLE NAS CLOUDY    79  76  90 SE17G26   29.55S FOG
COTULLA        MOCLDY    77  70  79 SE14      29.52S
LAREDO         MOCLDY    75  72  90 SE12      29.51R
BROWNSVILLE    CLOUDY    80  76  87 SE18G26   29.56S
PORT ISABEL    CLOUDY    79  76  90 SE21G28   29.55S FOG
HEBBRONVILLE   CLOUDY    75  70  84 S16G22    29.53S
MCALLEN        CLOUDY    79  74  84 SE20      29.53R HAZE
WESLACO        CLOUDY    77  74  88 S16G26    29.53S
FALFURRIAS     CLOUDY    78  73  85 SE12G17   29.54R
EDINBURG       PTSUNNY   79  73  82 SE13      29.53F
$$



USA.gov is the U.S. government's official web portal to all federal, state and local government web resources and services.